Year,Month,Day,Hour,Minute,Value (Times are PST for windspeed in km/hr)
2021,09,29,00,00,13.90
2021,09,29,00,01,16.50
2021,09,29,00,02,21.10
2021,09,29,00,03,20.00
2021,09,29,00,04,22.80
2021,09,29,00,05,19.40
2021,09,29,00,06,23.30
2021,09,29,00,07,21.60
2021,09,29,00,08,21.70
2021,09,29,00,09,19.10
2021,09,29,00,10,19.60
2021,09,29,00,11,16.20
2021,09,29,00,12,16.00
2021,09,29,00,13,15.60
2021,09,29,00,14,16.40
2021,09,29,00,15,15.40
2021,09,29,00,16,13.50
2021,09,29,00,17,10.80
2021,09,29,00,18,10.40
2021,09,29,00,19,17.70
2021,09,29,00,20,18.10
2021,09,29,00,21,19.80
2021,09,29,00,22,22.80
2021,09,29,00,23,23.00
2021,09,29,00,24,20.30
2021,09,29,00,25,21.30
2021,09,29,00,26,19.90
2021,09,29,00,27,21.00
2021,09,29,00,28,20.20
2021,09,29,00,29,22.10
2021,09,29,00,30,19.10
2021,09,29,00,31,17.80
2021,09,29,00,32,16.30
2021,09,29,00,33,20.70
2021,09,29,00,34,20.90
2021,09,29,00,35,22.90
2021,09,29,00,36,17.60
2021,09,29,00,37,14.20
2021,09,29,00,38,17.90
2021,09,29,00,39,18.70
2021,09,29,00,40,13.00
2021,09,29,00,41,13.90
2021,09,29,00,42,16.60
2021,09,29,00,43,15.30
2021,09,29,00,44,16.90
2021,09,29,00,45,17.10
2021,09,29,00,46,16.60
2021,09,29,00,47,17.60
2021,09,29,00,48,17.30
2021,09,29,00,49,18.80
2021,09,29,00,50,18.20
2021,09,29,00,51,17.40
2021,09,29,00,52,17.10
2021,09,29,00,53,20.60
2021,09,29,00,54,17.80
2021,09,29,00,55,22.20
2021,09,29,00,56,19.40
2021,09,29,00,57,21.50
2021,09,29,00,58,22.10
2021,09,29,00,59,19.10
2021,09,29,01,00,19.10
2021,09,29,01,01,18.50
2021,09,29,01,02,16.60
2021,09,29,01,03,18.30
2021,09,29,01,04,15.10
2021,09,29,01,05,13.10
2021,09,29,01,06,13.50
2021,09,29,01,07,10.40
2021,09,29,01,08,12.10
2021,09,29,01,09,11.80
2021,09,29,01,10,12.60
2021,09,29,01,11,11.10
2021,09,29,01,12,10.80
2021,09,29,01,13,13.10
2021,09,29,01,14,16.80
2021,09,29,01,15,13.80
2021,09,29,01,16,14.40
2021,09,29,01,17,13.50
2021,09,29,01,18,16.30
2021,09,29,01,19,18.90
2021,09,29,01,20,14.70
2021,09,29,01,21,12.60
2021,09,29,01,22,15.80
2021,09,29,01,23,10.60
2021,09,29,01,24,13.90
2021,09,29,01,25,12.40
2021,09,29,01,26,11.40
2021,09,29,01,27,7.90
2021,09,29,01,28,8.10
2021,09,29,01,29,8.00
2021,09,29,01,30,3.20
2021,09,29,01,31,5.70
2021,09,29,01,32,8.60
2021,09,29,01,33,8.80
2021,09,29,01,34,9.10
2021,09,29,01,35,10.40
2021,09,29,01,36,10.80
2021,09,29,01,37,13.00
2021,09,29,01,38,12.60
2021,09,29,01,39,9.50
2021,09,29,01,40,10.90
2021,09,29,01,41,11.20
2021,09,29,01,42,13.00
2021,09,29,01,43,14.50
2021,09,29,01,44,11.00
2021,09,29,01,45,8.90
2021,09,29,01,46,9.80
2021,09,29,01,47,9.50
2021,09,29,01,48,9.40
2021,09,29,01,49,10.00
2021,09,29,01,50,8.20
2021,09,29,01,51,9.40
2021,09,29,01,52,6.60
2021,09,29,01,53,10.40
2021,09,29,01,54,8.70
2021,09,29,01,55,6.00
2021,09,29,01,56,6.70
2021,09,29,01,57,10.40
2021,09,29,01,58,12.90
2021,09,29,01,59,6.90
2021,09,29,02,00,7.10
2021,09,29,02,01,7.20
2021,09,29,02,02,8.60
2021,09,29,02,03,10.80
2021,09,29,02,04,10.40
2021,09,29,02,05,14.40
2021,09,29,02,06,10.80
2021,09,29,02,07,8.60
2021,09,29,02,08,9.80
2021,09,29,02,09,10.00
2021,09,29,02,10,6.30
2021,09,29,02,11,6.60
2021,09,29,02,12,9.50
2021,09,29,02,13,12.90
2021,09,29,02,14,10.30
2021,09,29,02,15,9.50
2021,09,29,02,16,7.30
2021,09,29,02,17,9.20
2021,09,29,02,18,11.70
2021,09,29,02,19,9.60
2021,09,29,02,20,9.80
2021,09,29,02,21,8.70
2021,09,29,02,22,6.40
2021,09,29,02,23,6.00
2021,09,29,02,24,4.00
2021,09,29,02,25,4.20
2021,09,29,02,26,3.40
2021,09,29,02,27,4.00
2021,09,29,02,28,6.30
2021,09,29,02,29,5.90
2021,09,29,02,30,6.20
2021,09,29,02,31,5.50
2021,09,29,02,32,2.80
2021,09,29,02,33,4.90
2021,09,29,02,34,7.80
2021,09,29,02,35,7.80
2021,09,29,02,36,8.20
2021,09,29,02,37,7.30
2021,09,29,02,38,4.80
2021,09,29,02,39,4.40
2021,09,29,02,40,8.20
2021,09,29,02,41,9.50
2021,09,29,02,42,5.50
2021,09,29,02,43,7.20
2021,09,29,02,44,5.90
2021,09,29,02,45,2.80
2021,09,29,02,46,3.50
2021,09,29,02,47,3.80
2021,09,29,02,48,3.10
2021,09,29,02,49,1.60
2021,09,29,02,50,4.40
2021,09,29,02,51,5.30
2021,09,29,02,52,5.70
2021,09,29,02,53,6.70
2021,09,29,02,54,6.50
2021,09,29,02,55,6.30
2021,09,29,02,56,6.70
2021,09,29,02,57,7.60
2021,09,29,02,58,6.40
2021,09,29,02,59,7.30
2021,09,29,03,00,6.00
2021,09,29,03,01,5.50
2021,09,29,03,02,8.10
2021,09,29,03,03,7.10
2021,09,29,03,04,7.10
2021,09,29,03,05,5.20
2021,09,29,03,06,6.30
2021,09,29,03,07,6.70
2021,09,29,03,08,7.60
2021,09,29,03,09,7.20
2021,09,29,03,10,7.30
2021,09,29,03,11,3.80
2021,09,29,03,12,2.60
2021,09,29,03,13,2.60
2021,09,29,03,14,2.90
2021,09,29,03,15,1.00
2021,09,29,03,16,2.70
2021,09,29,03,17,2.40
2021,09,29,03,18,1.60
2021,09,29,03,19,2.90
2021,09,29,03,20,4.20
2021,09,29,03,21,5.60
2021,09,29,03,22,5.50
2021,09,29,03,23,5.60
2021,09,29,03,24,6.40
2021,09,29,03,25,7.30
2021,09,29,03,26,6.90
2021,09,29,03,27,5.80
2021,09,29,03,28,4.90
2021,09,29,03,29,4.90
2021,09,29,03,30,4.20
2021,09,29,03,31,3.80
2021,09,29,03,32,5.10
2021,09,29,03,33,3.70
2021,09,29,03,34,4.20
2021,09,29,03,35,6.30
2021,09,29,03,36,6.40
2021,09,29,03,37,7.60
2021,09,29,03,38,9.80
2021,09,29,03,39,8.80
2021,09,29,03,40,7.90
2021,09,29,03,41,9.30
2021,09,29,03,42,9.20
2021,09,29,03,43,7.60
2021,09,29,03,44,5.90
2021,09,29,03,45,6.00
2021,09,29,03,46,6.70
2021,09,29,03,47,9.50
2021,09,29,03,48,9.10
2021,09,29,03,49,10.30
2021,09,29,03,50,11.80
2021,09,29,03,51,11.20
2021,09,29,03,52,9.30
2021,09,29,03,53,10.60
2021,09,29,03,54,10.60
2021,09,29,03,55,11.50
2021,09,29,03,56,9.50
2021,09,29,03,57,11.60
2021,09,29,03,58,11.90
2021,09,29,03,59,12.00
2021,09,29,04,00,11.40
2021,09,29,04,01,12.10
2021,09,29,04,02,11.10
2021,09,29,04,03,10.70
2021,09,29,04,04,9.10
2021,09,29,04,05,10.00
2021,09,29,04,06,9.80
2021,09,29,04,07,8.90
2021,09,29,04,08,6.60
2021,09,29,04,09,6.10
2021,09,29,04,10,6.20
2021,09,29,04,11,4.90
2021,09,29,04,12,5.10
2021,09,29,04,13,6.70
2021,09,29,04,14,5.70
2021,09,29,04,15,4.60
2021,09,29,04,16,5.00
2021,09,29,04,17,5.60
2021,09,29,04,18,5.10
2021,09,29,04,19,4.10
2021,09,29,04,20,4.70
2021,09,29,04,21,4.90
2021,09,29,04,22,4.50
2021,09,29,04,23,3.60
2021,09,29,04,24,3.40
2021,09,29,04,25,3.30
2021,09,29,04,26,2.70
2021,09,29,04,27,2.80
2021,09,29,04,28,3.00
2021,09,29,04,29,2.90
2021,09,29,04,30,2.90
2021,09,29,04,31,2.70
2021,09,29,04,32,1.90
2021,09,29,04,33,1.40
2021,09,29,04,34,1.30
2021,09,29,04,35,0.70
2021,09,29,04,36,0.90
2021,09,29,04,37,0.10
2021,09,29,04,38,0.10
2021,09,29,04,39,0.20
2021,09,29,04,40,0.00
2021,09,29,04,41,0.00
2021,09,29,04,42,0.00
2021,09,29,04,43,0.10
2021,09,29,04,44,0.00
2021,09,29,04,45,0.00
2021,09,29,04,46,0.10
2021,09,29,04,47,0.60
2021,09,29,04,48,0.20
2021,09,29,04,49,0.00
2021,09,29,04,50,0.10
2021,09,29,04,51,0.00
2021,09,29,04,52,0.00
2021,09,29,04,53,1.20
2021,09,29,04,54,2.90
2021,09,29,04,55,1.10
2021,09,29,04,56,0.10
2021,09,29,04,57,0.00
2021,09,29,04,58,0.00
2021,09,29,04,59,0.20
2021,09,29,05,00,1.00
2021,09,29,05,01,0.70
2021,09,29,05,02,0.20
2021,09,29,05,03,0.10
2021,09,29,05,04,0.20
2021,09,29,05,05,0.00
2021,09,29,05,06,0.10
2021,09,29,05,07,0.10
2021,09,29,05,08,0.20
2021,09,29,05,09,0.20
2021,09,29,05,10,0.10
2021,09,29,05,11,0.00
2021,09,29,05,12,0.20
2021,09,29,05,13,0.20
2021,09,29,05,14,0.70
2021,09,29,05,15,1.00
2021,09,29,05,16,1.20
2021,09,29,05,17,0.30
2021,09,29,05,18,0.00
2021,09,29,05,19,0.00
2021,09,29,05,20,0.80
2021,09,29,05,21,2.50
2021,09,29,05,22,3.00
2021,09,29,05,23,3.40
2021,09,29,05,24,4.90
2021,09,29,05,25,5.20
2021,09,29,05,26,4.10
2021,09,29,05,27,4.10
2021,09,29,05,28,4.70
2021,09,29,05,29,4.50
2021,09,29,05,30,5.30
2021,09,29,05,31,5.60
2021,09,29,05,32,4.80
2021,09,29,05,33,5.50
2021,09,29,05,34,6.00
2021,09,29,05,35,5.70
2021,09,29,05,36,6.00
2021,09,29,05,37,5.20
2021,09,29,05,38,5.60
2021,09,29,05,39,5.70
2021,09,29,05,40,6.00
2021,09,29,05,41,4.70
2021,09,29,05,42,4.70
2021,09,29,05,43,5.80
2021,09,29,05,44,7.30
2021,09,29,05,45,7.50
2021,09,29,05,46,7.90
2021,09,29,05,47,8.30
2021,09,29,05,48,8.30
2021,09,29,05,49,8.90
2021,09,29,05,50,8.60
2021,09,29,05,51,9.10
2021,09,29,05,52,8.50
2021,09,29,05,53,8.20
2021,09,29,05,54,8.10
2021,09,29,05,55,8.20
2021,09,29,05,56,7.70
2021,09,29,05,57,7.30
2021,09,29,05,58,7.70
2021,09,29,05,59,6.70
2021,09,29,06,00,6.70
2021,09,29,06,01,6.50
2021,09,29,06,02,7.30
2021,09,29,06,03,6.90
2021,09,29,06,04,6.10
2021,09,29,06,05,6.50
2021,09,29,06,06,6.30
2021,09,29,06,07,6.10
2021,09,29,06,08,6.70
2021,09,29,06,09,7.20
2021,09,29,06,10,6.60
2021,09,29,06,11,4.50
2021,09,29,06,12,4.30
2021,09,29,06,13,4.30
2021,09,29,06,14,3.70
2021,09,29,06,15,3.20
2021,09,29,06,16,3.60
2021,09,29,06,17,2.90
2021,09,29,06,18,2.20
2021,09,29,06,19,2.90
2021,09,29,06,20,1.60
2021,09,29,06,21,1.20
2021,09,29,06,22,1.50
2021,09,29,06,23,1.60
2021,09,29,06,24,3.10
2021,09,29,06,25,2.00
2021,09,29,06,26,2.00
2021,09,29,06,27,2.10
2021,09,29,06,28,1.70
2021,09,29,06,29,2.20
2021,09,29,06,30,3.50
2021,09,29,06,31,4.90
2021,09,29,06,32,5.30
2021,09,29,06,33,5.20
2021,09,29,06,34,4.20
2021,09,29,06,35,5.50
2021,09,29,06,36,6.30
2021,09,29,06,37,8.00
2021,09,29,06,38,5.70
2021,09,29,06,39,6.60
2021,09,29,06,40,5.60
2021,09,29,06,41,3.80
2021,09,29,06,42,4.00
2021,09,29,06,43,3.90
2021,09,29,06,44,3.10
2021,09,29,06,45,1.10
2021,09,29,06,46,0.50
2021,09,29,06,47,0.30
2021,09,29,06,48,0.80
2021,09,29,06,49,1.30
2021,09,29,06,50,1.70
2021,09,29,06,51,2.60
2021,09,29,06,52,2.40
2021,09,29,06,53,1.90
2021,09,29,06,54,1.80
2021,09,29,06,55,2.00
2021,09,29,06,56,2.40
2021,09,29,06,57,2.30
2021,09,29,06,58,1.70
2021,09,29,06,59,2.10
2021,09,29,07,00,1.90
2021,09,29,07,01,1.30
2021,09,29,07,02,2.60
2021,09,29,07,03,1.70
2021,09,29,07,04,2.40
2021,09,29,07,05,3.80
2021,09,29,07,06,4.60
2021,09,29,07,07,6.10
2021,09,29,07,08,6.40
2021,09,29,07,09,7.50
2021,09,29,07,10,7.30
2021,09,29,07,11,8.00
2021,09,29,07,12,14.00
2021,09,29,07,13,17.70
2021,09,29,07,14,15.40
2021,09,29,07,15,18.80
2021,09,29,07,16,17.20
2021,09,29,07,17,15.30
2021,09,29,07,18,15.10
2021,09,29,07,19,15.50
2021,09,29,07,20,15.70
2021,09,29,07,21,17.00
2021,09,29,07,22,17.30
2021,09,29,07,23,15.60
2021,09,29,07,24,18.20
2021,09,29,07,25,20.30
2021,09,29,07,26,21.00
2021,09,29,07,27,16.40
2021,09,29,07,28,18.60
2021,09,29,07,29,18.60
2021,09,29,07,30,23.40
2021,09,29,07,31,20.60
2021,09,29,07,32,19.10
2021,09,29,07,33,21.30
2021,09,29,07,34,18.30
2021,09,29,07,35,17.80
2021,09,29,07,36,20.10
2021,09,29,07,37,20.30
2021,09,29,07,38,19.10
2021,09,29,07,39,17.90
2021,09,29,07,40,21.40
2021,09,29,07,41,22.30
2021,09,29,07,42,19.50
2021,09,29,07,43,17.60
2021,09,29,07,44,19.70
2021,09,29,07,45,19.10
2021,09,29,07,46,21.00
2021,09,29,07,47,19.60
2021,09,29,07,48,21.10
2021,09,29,07,49,24.80
2021,09,29,07,50,23.20
2021,09,29,07,51,23.00
2021,09,29,07,52,19.10
2021,09,29,07,53,21.80
2021,09,29,07,54,21.00
2021,09,29,07,55,20.40
2021,09,29,07,56,23.30
2021,09,29,07,57,26.60
2021,09,29,07,58,23.40
2021,09,29,07,59,27.50
2021,09,29,08,00,24.40
2021,09,29,08,01,24.40
2021,09,29,08,02,26.40
2021,09,29,08,03,27.50
2021,09,29,08,04,25.40
2021,09,29,08,05,25.40
2021,09,29,08,06,27.10
2021,09,29,08,07,21.80
2021,09,29,08,08,22.40
2021,09,29,08,09,20.60
2021,09,29,08,10,24.10
2021,09,29,08,11,22.80
2021,09,29,08,12,24.60
2021,09,29,08,13,23.40
2021,09,29,08,14,23.60
2021,09,29,08,15,26.40
2021,09,29,08,16,26.20
2021,09,29,08,17,26.30
2021,09,29,08,18,24.30
2021,09,29,08,19,24.00
2021,09,29,08,20,22.80
2021,09,29,08,21,27.50
2021,09,29,08,22,27.00
2021,09,29,08,23,26.10
2021,09,29,08,24,27.70
2021,09,29,08,25,22.60
2021,09,29,08,26,27.00
2021,09,29,08,27,25.80
2021,09,29,08,28,24.60
2021,09,29,08,29,22.00
2021,09,29,08,30,26.90
2021,09,29,08,31,26.60
2021,09,29,08,32,20.80
2021,09,29,08,33,22.40
2021,09,29,08,34,21.20
2021,09,29,08,35,20.70
2021,09,29,08,36,23.10
2021,09,29,08,37,23.70
2021,09,29,08,38,19.70
2021,09,29,08,39,20.90
2021,09,29,08,40,21.80
2021,09,29,08,41,25.50
2021,09,29,08,42,22.00
2021,09,29,08,43,22.10
2021,09,29,08,44,24.30
2021,09,29,08,45,23.40
2021,09,29,08,46,21.50
2021,09,29,08,47,22.80
2021,09,29,08,48,21.50
2021,09,29,08,49,24.00
2021,09,29,08,50,23.50
2021,09,29,08,51,21.20
2021,09,29,08,52,22.70
2021,09,29,08,53,20.90
2021,09,29,08,54,22.90
2021,09,29,08,55,20.90
2021,09,29,08,56,19.60
2021,09,29,08,57,16.90
2021,09,29,08,58,21.60
2021,09,29,08,59,22.40
2021,09,29,09,00,16.70
2021,09,29,09,01,19.40
2021,09,29,09,02,18.30
2021,09,29,09,03,16.00
2021,09,29,09,04,18.60
2021,09,29,09,05,20.30
2021,09,29,09,06,26.00
2021,09,29,09,07,20.30
2021,09,29,09,08,23.30
2021,09,29,09,09,20.80
2021,09,29,09,10,22.70
2021,09,29,09,11,18.20
2021,09,29,09,12,19.40
2021,09,29,09,13,18.30
2021,09,29,09,14,16.40
2021,09,29,09,15,19.10
2021,09,29,09,16,18.80
2021,09,29,09,17,21.30
2021,09,29,09,18,19.40
2021,09,29,09,19,22.70
2021,09,29,09,20,22.10
2021,09,29,09,21,20.90
2021,09,29,09,22,18.70
2021,09,29,09,23,18.80
2021,09,29,09,24,19.10
2021,09,29,09,25,18.20
2021,09,29,09,26,16.50
2021,09,29,09,27,17.10
2021,09,29,09,28,17.60
2021,09,29,09,29,20.10
2021,09,29,09,30,21.10
2021,09,29,09,31,18.80
2021,09,29,09,32,17.30
2021,09,29,09,33,19.10
2021,09,29,09,34,17.30
2021,09,29,09,35,20.60
2021,09,29,09,36,22.50
2021,09,29,09,37,21.70
2021,09,29,09,38,20.80
2021,09,29,09,39,20.90
2021,09,29,09,40,26.50
2021,09,29,09,41,26.70
2021,09,29,09,42,27.00
2021,09,29,09,43,25.80
2021,09,29,09,44,24.90
2021,09,29,09,45,21.70
2021,09,29,09,46,20.50
2021,09,29,09,47,21.50
2021,09,29,09,48,22.80
2021,09,29,09,49,24.10
2021,09,29,09,50,26.70
2021,09,29,09,51,20.00
2021,09,29,09,52,23.50
2021,09,29,09,53,22.50
2021,09,29,09,54,22.30
2021,09,29,09,55,22.20
2021,09,29,09,56,25.60
2021,09,29,09,57,24.70
2021,09,29,09,58,24.60
2021,09,29,09,59,25.80
2021,09,29,10,00,23.20
2021,09,29,10,01,23.50
2021,09,29,10,02,24.00
2021,09,29,10,03,19.90
2021,09,29,10,04,23.50
2021,09,29,10,05,23.50
2021,09,29,10,06,24.50
2021,09,29,10,07,22.50
2021,09,29,10,08,21.50
2021,09,29,10,09,19.40
2021,09,29,10,10,24.10
2021,09,29,10,11,30.40
2021,09,29,10,12,25.70
2021,09,29,10,13,23.80
2021,09,29,10,14,29.40
2021,09,29,10,15,29.10
2021,09,29,10,16,28.30
2021,09,29,10,17,26.60
2021,09,29,10,18,28.90
2021,09,29,10,19,24.00
2021,09,29,10,20,24.10
2021,09,29,10,21,29.00
2021,09,29,10,22,25.80
2021,09,29,10,23,25.20
2021,09,29,10,24,27.10
2021,09,29,10,25,25.20
2021,09,29,10,26,19.60
2021,09,29,10,27,25.80
2021,09,29,10,28,24.90
2021,09,29,10,29,27.60
2021,09,29,10,30,26.90
2021,09,29,10,31,27.80
2021,09,29,10,32,25.30
2021,09,29,10,33,28.80
2021,09,29,10,34,28.10
2021,09,29,10,35,27.90
2021,09,29,10,36,24.60
2021,09,29,10,37,28.30
2021,09,29,10,38,31.90
2021,09,29,10,39,28.70
2021,09,29,10,40,26.40
2021,09,29,10,41,26.10
2021,09,29,10,42,30.10
2021,09,29,10,43,29.30
2021,09,29,10,44,27.50
2021,09,29,10,45,30.30
2021,09,29,10,46,25.60
2021,09,29,10,47,26.40
2021,09,29,10,48,29.90
2021,09,29,10,49,27.40
2021,09,29,10,50,26.40
2021,09,29,10,51,23.50
2021,09,29,10,52,29.30
2021,09,29,10,53,22.70
2021,09,29,10,54,28.20
2021,09,29,10,55,28.10
2021,09,29,10,56,23.10
2021,09,29,10,57,26.60
2021,09,29,10,58,32.20
2021,09,29,10,59,23.90
2021,09,29,11,00,28.60
2021,09,29,11,01,29.10
2021,09,29,11,02,23.10
2021,09,29,11,03,21.60
2021,09,29,11,04,18.80
2021,09,29,11,05,23.00
2021,09,29,11,06,20.60
2021,09,29,11,07,21.90
2021,09,29,11,08,19.10
2021,09,29,11,09,23.70
2021,09,29,11,10,22.60
2021,09,29,11,11,24.60
2021,09,29,11,12,24.80
2021,09,29,11,13,26.60
2021,09,29,11,14,21.80
2021,09,29,11,15,28.70
2021,09,29,11,16,27.20
2021,09,29,11,17,23.80
2021,09,29,11,18,26.50
2021,09,29,12,44,32.10
2021,09,29,12,45,24.80
2021,09,29,12,46,29.40
2021,09,29,12,47,26.40
2021,09,29,12,48,26.10
2021,09,29,12,49,25.20
2021,09,29,12,50,25.80
2021,09,29,12,51,26.50
2021,09,29,12,52,27.80
2021,09,29,12,53,29.30
2021,09,29,12,54,23.00
2021,09,29,12,55,24.60
2021,09,29,12,56,28.90
2021,09,29,12,57,25.90
2021,09,29,12,58,25.10
2021,09,29,12,59,23.20
2021,09,29,13,00,23.80
2021,09,29,13,01,25.30
2021,09,29,13,02,25.80
2021,09,29,13,03,21.90
2021,09,29,13,04,25.60
2021,09,29,13,05,24.40
2021,09,29,13,06,24.00
2021,09,29,13,07,28.50
2021,09,29,13,08,28.50
2021,09,29,13,09,28.00
2021,09,29,13,10,26.60
2021,09,29,13,11,25.90
2021,09,29,13,12,23.40
2021,09,29,13,13,27.80
2021,09,29,13,14,21.90
2021,09,29,13,15,25.30
2021,09,29,13,16,29.40
2021,09,29,13,17,32.10
2021,09,29,13,18,30.10
2021,09,29,13,19,26.20
2021,09,29,13,20,30.60
2021,09,29,13,21,26.80
2021,09,29,13,22,23.50
2021,09,29,13,23,23.70
2021,09,29,13,24,26.60
2021,09,29,13,25,25.50
2021,09,29,13,26,29.20
2021,09,29,13,27,28.00
2021,09,29,13,28,27.70
2021,09,29,13,29,29.20
2021,09,29,13,30,28.20
2021,09,29,13,31,23.60
2021,09,29,13,32,23.40
2021,09,29,13,33,23.60
2021,09,29,13,34,28.60
2021,09,29,13,35,28.50
2021,09,29,13,36,27.90
2021,09,29,13,37,27.10
2021,09,29,13,38,27.90
2021,09,29,13,39,25.80
2021,09,29,13,40,29.40
2021,09,29,13,41,29.30
2021,09,29,13,42,25.70
2021,09,29,13,43,29.00
2021,09,29,13,44,28.50
2021,09,29,13,45,26.10
2021,09,29,13,46,25.10
2021,09,29,13,47,23.50
2021,09,29,13,48,22.20
2021,09,29,13,49,26.00
2021,09,29,13,50,27.70
2021,09,29,13,51,26.30
2021,09,29,13,52,26.90
2021,09,29,13,53,24.90
2021,09,29,13,54,24.30
2021,09,29,13,55,25.20
2021,09,29,13,56,23.90
2021,09,29,13,57,23.30
2021,09,29,13,58,25.00
2021,09,29,13,59,20.80
2021,09,29,14,00,20.90
2021,09,29,14,01,21.60
2021,09,29,14,02,24.60
2021,09,29,14,03,23.70
2021,09,29,14,04,26.30
2021,09,29,14,05,28.20
2021,09,29,14,06,24.40
2021,09,29,14,07,22.90
2021,09,29,14,08,20.70
2021,09,29,14,09,26.30
2021,09,29,14,10,26.20
2021,09,29,14,11,24.70
2021,09,29,14,12,25.00
2021,09,29,14,13,24.30
2021,09,29,14,14,26.80
2021,09,29,14,15,23.60
2021,09,29,14,16,20.70
2021,09,29,14,17,21.40
2021,09,29,14,18,22.00
2021,09,29,14,19,19.40
2021,09,29,14,20,22.70
2021,09,29,14,21,21.70
2021,09,29,14,22,23.80
2021,09,29,14,23,23.40
2021,09,29,14,24,27.20
2021,09,29,14,25,29.00
2021,09,29,14,26,28.80
2021,09,29,14,27,25.50
2021,09,29,14,28,28.00
2021,09,29,14,29,32.20
2021,09,29,14,30,28.40
2021,09,29,14,31,26.80
2021,09,29,14,32,28.80
2021,09,29,14,33,23.90
2021,09,29,14,34,26.20
2021,09,29,14,35,25.90
2021,09,29,14,36,26.40
2021,09,29,14,37,26.70
2021,09,29,14,38,23.00
2021,09,29,14,39,24.50
2021,09,29,14,40,23.30
2021,09,29,14,41,23.70
2021,09,29,14,42,22.30
2021,09,29,14,43,24.70
2021,09,29,14,44,28.60
2021,09,29,14,45,28.40
2021,09,29,14,46,23.60
2021,09,29,14,47,27.10
2021,09,29,14,48,27.80
2021,09,29,14,49,30.70
2021,09,29,14,50,27.90
2021,09,29,14,51,26.20
2021,09,29,14,52,27.10
2021,09,29,14,53,29.00
2021,09,29,14,54,30.00
2021,09,29,14,55,25.90
2021,09,29,14,56,27.50
2021,09,29,14,57,28.30
2021,09,29,14,58,23.80
2021,09,29,14,59,25.80
2021,09,29,15,00,22.70
2021,09,29,15,01,28.00
2021,09,29,15,02,25.70
2021,09,29,15,03,24.00
2021,09,29,15,04,26.90
2021,09,29,15,05,28.80
2021,09,29,15,06,28.70
2021,09,29,15,07,26.30
2021,09,29,15,08,27.80
2021,09,29,15,09,29.40
2021,09,29,15,10,28.80
2021,09,29,15,11,22.10
2021,09,29,15,12,24.40
2021,09,29,15,13,24.20
2021,09,29,15,14,26.40
2021,09,29,15,15,27.40
2021,09,29,15,16,19.40
2021,09,29,15,17,19.40
2021,09,29,15,18,21.20
2021,09,29,15,19,16.50
2021,09,29,15,20,20.70
2021,09,29,15,21,17.60
2021,09,29,15,22,15.60
2021,09,29,15,23,17.30
2021,09,29,15,24,14.80
2021,09,29,15,25,10.90
2021,09,29,15,26,10.70
2021,09,29,15,27,3.80
2021,09,29,15,28,3.90
2021,09,29,15,29,4.90
2021,09,29,15,30,5.60
2021,09,29,15,31,6.00
2021,09,29,15,32,5.10
2021,09,29,15,33,3.00
2021,09,29,15,34,2.40
2021,09,29,15,35,4.20
2021,09,29,15,36,4.10
2021,09,29,15,37,4.90
2021,09,29,15,38,3.70
2021,09,29,15,39,3.80
2021,09,29,15,40,2.70
2021,09,29,15,41,3.50
2021,09,29,15,42,4.30
2021,09,29,15,43,9.10
2021,09,29,15,44,12.50
2021,09,29,15,45,15.00
2021,09,29,15,46,14.10
2021,09,29,15,47,16.00
2021,09,29,15,48,15.70
2021,09,29,15,49,12.20
2021,09,29,15,50,14.30
2021,09,29,15,51,13.70
2021,09,29,15,52,9.50
2021,09,29,15,53,11.50
2021,09,29,15,54,13.70
2021,09,29,15,55,15.90
2021,09,29,15,56,14.70
2021,09,29,15,57,16.60
2021,09,29,15,58,15.10
2021,09,29,15,59,16.30
2021,09,29,16,00,19.30
2021,09,29,16,01,21.70
2021,09,29,16,02,19.40
2021,09,29,16,03,16.20
2021,09,29,16,04,18.60
2021,09,29,16,05,15.00
2021,09,29,16,06,15.50
2021,09,29,16,07,19.30
2021,09,29,16,08,14.90
2021,09,29,16,09,16.50
2021,09,29,16,10,15.70
2021,09,29,16,11,17.50
2021,09,29,16,12,19.00
2021,09,29,16,13,16.40
2021,09,29,16,14,16.90
2021,09,29,16,15,12.30
2021,09,29,16,16,16.50
2021,09,29,16,17,14.90
2021,09,29,16,18,8.50
2021,09,29,16,19,16.60
2021,09,29,16,20,17.00
2021,09,29,16,21,19.00
2021,09,29,16,22,14.20
2021,09,29,16,23,14.70
2021,09,29,16,24,12.20
2021,09,29,16,25,13.10
2021,09,29,16,26,11.30
2021,09,29,16,27,12.30
2021,09,29,16,28,8.60
2021,09,29,16,29,11.80
2021,09,29,16,30,12.80
2021,09,29,16,31,18.00
2021,09,29,16,32,13.70
2021,09,29,16,33,16.60
2021,09,29,16,34,18.60
2021,09,29,16,35,16.90
2021,09,29,16,36,17.20
2021,09,29,16,37,16.60
2021,09,29,16,38,13.70
2021,09,29,16,39,15.90
2021,09,29,16,40,19.10
2021,09,29,16,41,17.00
2021,09,29,16,42,13.30
2021,09,29,16,43,11.80
2021,09,29,16,44,16.20
2021,09,29,16,45,15.60
2021,09,29,16,46,13.90
2021,09,29,16,47,17.30
2021,09,29,16,48,17.10
2021,09,29,16,49,17.80
2021,09,29,16,50,18.60
2021,09,29,16,51,16.60
2021,09,29,16,52,12.90
2021,09,29,16,53,12.70
2021,09,29,16,54,12.80
2021,09,29,16,55,9.70
2021,09,29,16,56,12.50
2021,09,29,16,57,13.20
2021,09,29,16,58,14.80
2021,09,29,16,59,14.10
2021,09,29,17,00,15.50
2021,09,29,17,01,14.90
2021,09,29,17,02,19.00
2021,09,29,17,03,15.20
2021,09,29,17,04,20.40
2021,09,29,17,05,17.70
2021,09,29,17,06,17.10
2021,09,29,17,07,17.40
2021,09,29,17,08,12.90
2021,09,29,17,09,15.20
2021,09,29,17,10,20.30
2021,09,29,17,11,19.20
2021,09,29,17,12,19.30
2021,09,29,17,13,19.30
2021,09,29,17,14,16.80
2021,09,29,17,15,19.70
2021,09,29,17,16,18.00
2021,09,29,17,17,17.20
2021,09,29,17,18,17.00
2021,09,29,17,19,23.30
2021,09,29,17,20,24.00
2021,09,29,17,21,21.70
2021,09,29,17,22,23.80
2021,09,29,17,23,21.90
2021,09,29,17,24,22.10
2021,09,29,17,25,20.30
2021,09,29,17,26,24.10
2021,09,29,17,27,24.00
2021,09,29,17,28,23.20
2021,09,29,17,29,19.80
2021,09,29,17,30,22.40
2021,09,29,17,31,23.30
2021,09,29,17,32,22.80
2021,09,29,17,33,23.10
2021,09,29,17,34,25.40
2021,09,29,17,35,24.40
2021,09,29,17,36,24.40
2021,09,29,17,37,23.50
2021,09,29,17,38,26.50
2021,09,29,17,39,21.00
2021,09,29,17,40,24.10
2021,09,29,17,41,22.80
2021,09,29,17,42,29.40
2021,09,29,17,43,24.80
2021,09,29,17,44,27.90
2021,09,29,17,45,24.60
2021,09,29,17,46,24.60
2021,09,29,17,47,26.00
2021,09,29,17,48,30.60
2021,09,29,17,49,23.50
2021,09,29,17,50,22.40
2021,09,29,17,51,18.60
2021,09,29,17,52,27.80
2021,09,29,17,53,21.00
2021,09,29,17,54,19.80
2021,09,29,17,55,19.90
2021,09,29,17,56,25.10
2021,09,29,17,57,26.50
2021,09,29,17,58,24.70
2021,09,29,17,59,27.10
2021,09,29,18,00,25.50
2021,09,29,18,01,24.60
2021,09,29,18,02,26.60
2021,09,29,18,03,25.10
2021,09,29,18,04,26.90
2021,09,29,18,05,32.80
2021,09,29,18,06,29.80
2021,09,29,18,07,27.00
2021,09,29,18,08,23.20
2021,09,29,18,09,27.30
2021,09,29,18,10,26.10
2021,09,29,18,11,23.40
2021,09,29,18,12,23.60
2021,09,29,18,13,27.40
2021,09,29,18,14,22.10
2021,09,29,18,15,30.30
2021,09,29,18,16,27.50
2021,09,29,18,17,24.10
2021,09,29,18,18,27.50
2021,09,29,18,19,28.40
2021,09,29,18,20,30.30
2021,09,29,18,21,25.50
2021,09,29,18,22,28.10
2021,09,29,18,23,28.30
2021,09,29,18,24,25.10
2021,09,29,18,25,30.50
2021,09,29,18,26,32.40
2021,09,29,18,27,27.10
2021,09,29,18,28,26.50
2021,09,29,18,29,25.80
2021,09,29,18,30,27.10
2021,09,29,18,31,28.50
2021,09,29,18,32,29.70
2021,09,29,18,33,28.30
2021,09,29,18,34,29.30
2021,09,29,18,35,29.60
2021,09,29,18,36,29.70
2021,09,29,18,37,28.90
2021,09,29,18,38,30.20
2021,09,29,18,39,25.90
2021,09,29,18,40,28.80
2021,09,29,18,41,28.40
2021,09,29,18,42,29.70
2021,09,29,18,43,31.30
2021,09,29,18,44,29.10
2021,09,29,18,45,24.60
2021,09,29,18,46,23.60
2021,09,29,18,47,28.30
2021,09,29,18,48,26.30
2021,09,29,18,49,24.80
2021,09,29,18,50,30.30
2021,09,29,18,51,28.30
2021,09,29,18,52,22.90
2021,09,29,18,53,27.10
2021,09,29,18,54,25.60
2021,09,29,18,55,25.80
2021,09,29,18,56,24.60
2021,09,29,18,57,32.90
2021,09,29,18,58,27.10